SCP
-0 -0 -0 -0 0 -0 0 0 0 -0 -0 0 -0 -0 -0 -0 -0 -0 0 -0 -0 -0 -0 0 0 0 0 -0 -0 -0 -0 -0 -0 0 0 0 0 0 0 0 0 0 0 0 0 0 0 0 0
-0 0 0 -0 0 -0 -0 -0 -0 -0 0 -0 -0 0 0 -0 -0 -0 -0 -0 -0 -0 -0 0 -0 -0 -0 -0 -0 -0 -0 0 0 0 0 0 0 0 0 0 0 0 0 0 0 0 0 0 0
0 -0 0 -0 0 0 0 -0 0 0 -0 0 0 -0 -0 0 -0 -0 -0 -0 -0 -0 -0 -0 -0 -0 -0 -0 0 0 0 0 0 0 0 0 0 0 0 0 0 0 0 0 0 0 0 0 0
0 0 0 0 -0 -0 -0 -0 -0 0 0 -0 -0 -0 -0 -0 -0 -0 -0 -0 -0 -0 -0 -0 -0 -0 0 0 0 0 0 0 0 0 0 0 0 0 0 0 0 0 0 0 0 0 0 0 0
0 0 -0 0 -0 -0 0 -0 -0 0 0 -0 0 -0 -0 -0 -0 -0 -0 -0 -0 -0 -0 -0 0 0 0 0 0 0 0 0 0 0 0 0 0 0 0 0 0 0 0 0 0 0 0 0 0
0 0 -0 -0 -0 0 0 -0 -0 0 -0 -0 -0 -0 -0 -0 -0 -0 -0 -0 0 0 0 0 0 0 0 0 0 0 0 0 0 0 0 0 0 0 0 0 0 0 0 0 0 0 0 0 0
0 -0 -0 -0 -0 -0 -0 -0 0 0 -0 -0 0 -0 -0 -0 -0 -0 -0 -0 0 0 0 0 0 0 0 0 0 0 0 0 0 0 0 0 0 0 0 0 0 0 0 0 0 0 0 0 0
0 -0 -0 -0 -0 0 -0 0 -0 -0 -0 0 -0 0 -0 -0 -0 0 0 0 0 0 0 0 0 0 0 0 0 0 0 0 0 0 0 0 0 0 0 0 0 0 0 0 0 0 0 0 0
0 0 -0 -0 -0 -0 -0 -0 0 0 -0 0 0 0 -0 -0 0 0 0 0 0 0 0 0 0 0 0 0 0 -0 0 0 0 0 0 0 0 0 0 0 0 0 0 0 0 0 0 0 0
0 -0 -0 -0 -0 -0 -0 0 -0 0 -0 -0 0 -0 -0 0 0 0 0 0 0 0 0 0 0 0 0 0 0 0 0 0 0 0 0 0 0 0 0 0 0 0 0 0 0 0 0 0 0
-0 0 0 0 0 -0 -0 -0 0 0 0 0 0 -0 -0 0 0 0 0 0 0 0 0 0 0 0 -0 -0 0 0 0 0 0 0 0 0 0 0 0 0 0 0 0 0 0 0 0 0 0
-0 -0 0 -0 -0 0 0 0 0 0 0 0 0 0 0 0 0 0 0 0 0 0 0 0 0 -0 -0 -0 -0 0 0 0 0 0 0 0 0 0 0 0 0 0 0 0 0 0 0 0 0
-0 -0 -0 -0 0 0 0 0 0 0 0 0 0 0 0 0 0 0 0 0 0 0 0 0 -0 -0 -0 -0 -0 -0 0 0 0 0 0 0 0 0 0 0 0 0 0 0 0 0 0 0 0
0 -0 -0 0 0 0 0 0 0 0 0 0 0 0 0 0 0 0 0 -0 -0 0 -0 0 -0 -0 -0 -0 -0 -0 0 0 0 0 0 0 0 0 0 0 0 0 0 0 0 0 0 0 0
-0 -0 0 0 0 0 0 0 0 0 0 0 0 0 0 0 0 0 0 -0 0 0 0 0 -0 -0 -0 -0 -0 0 0 0 0 0 0 0 0 0 0 0 0 0 0 0 0 0 0 0 0
0 0 0 0 0 0 0 0 0 0 0 0 0 0 0 0 0 0 0 0 0 0 0 0 0 0 0 0 0 0 0 0 0 0 0 0 0 0 0 0 0 0 0 0 0 0 0 0 0
0 0 0 0 0 0 0 0 0 0 0 0 0 0 0 0 0 0 0 0 0 0 0 0 0 0 0 0 0 0 0 0 0 0 0 0 0 0 0 0 0 0 0 0 0 0 0 0 0
0 0 0 0 0 0 0 0 0 0 0 0 0 0 0 0 0 0 0 0 0 0 0 0 0 0 0 0 0 0 0 0 0 0 0 0 0 0 0 0 0 0 0 0 0 0 0 0 0
0 0 0 0 0 0 0 0 0 0 0 0 0 0 0 -0 0 0 0 0 0 0 0 0 0 0 0 0 0 0 0 0 0 0 0 0 0 0 0 0 0 0 0 0 0 0 0 0 0
0 0 0 0 0 0 0 0 0 0 0 0 0 0 0 0 0 0 0 0 0 0 0 -0 0 0 0 0 0 0 0 0 0 0 0 0 0 0 0 0 0 0 0 0 0 0 0 0 0
0 0 1 0 0 0 0 0 0 0 0 0 0 0 0 0 0 0 0 0 0 0 0 0 0 0 0 0 0 0 0 0 0 0 0 0 0 0 0 0 0 0 0 0 0 0 0 0 0
0 0 0 1 0 0 0 0 0 0 0 0 0 0 0 0 0 0 0 0 0 0 0 0 0 0 0 0 0 0 0 0 0 0 0 0 0 0 0 0 0 0 -0 0 0 0 0 0 0
0 0 0 0 0 0 0 0 0 0 0 0 0 0 0 0 0 0 0 0 0 0 0 0 0 0 0 0 0 0 0 0 0 0 0 0 0 0 0 0 0 0 0 0 0 0 0 0 0
0 0 0 0 0 0 0 0 0 0 0 0 0 0 0 0 0 0 0 0 0 0 0 0 0 0 0 0 0 0 0 0 0 0 0 0 0 0 0 0 0 0 0 0 0 0 0 0 0
0 0 0 0 0 0 0 0 0 0 0 0 0 0 0 0 0 0 0 0 0 0 0 0 0 0 0 0 0 0 0 0 0 0 0 0 0 0 0 0 0 0 0 0 0 0 0 0 0
0 0 0 0 0 0 0 0 0 0 0 0 0 0 0 0 0 0 0 0 0 0 0 0 0 0 0 0 0 0 0 0 0 0 0 0 0 0 0 0 0 0 0 0 0 0 0 0 0
0 0 0 0 0 0 0 0 0 0 0 0 0 0 0 0 0 0 0 0 0 0 0 0 0 0 0 0 0 0 0 0 0 0 0 0 0 0 0 0 -0 -0 0 0 0 0 0 0 0
0 0 0 0 0 0 0 0 0 0 0 0 0 0 0 0 0 0 0 0 0 0 0 0 0 0 0 0 0 0 0 0 0 0 0 0 0 0 0 0 0 0 0 0 0 0 0 0 0
0 0 0 0 0 0 0 0 0 0 0 0 0 0 0 0 0 0 0 0 0 0 0 0 0 0 0 0 0 0 0 0 0 0 -0 0 0 0 0 0 0 0 0 0 -0 -0 -0 -0 0
0 0 0 0 0 0 0 0 0 0 0 0 0 0 0 0 0 0 0 0 0 0 0 0 0 0 0 0 0 0 0 0 0 0 0 -0 -0 0 0 0 0 0 0 -0 -0 -0 -0 -0 -0
Wind_Speed_500mb
13 7 9 6 8 8 18 13 17 18 16 12 14 16 24 17 12 14 18 16 21 24 25 23 23 21 17 16 17 19 16 18 16 13 11 9 9 7 7 7 5 5 7 5 4 2 2 2 1
8 5 3 7 6 14 14 15 20 17 19 22 17 13 10 12 15 23 18 24 24 26 27 26 21 19 18 16 14 12 11 11 11 13 13 12 10 9 8 7 4 1 3 3 4 8 6 6 6
3 7 12 4 8 16 20 18 20 19 12 10 10 15 13 8 16 14 26 30 29 33 31 26 19 16 14 14 12 10 9 10 13 14 13 12 10 9 8 7 7 5 7 11 10 9 12 12 12
2 7 6 10 30 22 27 18 18 21 17 5 17 21 21 13 11 19 32 33 33 32 29 20 16 16 17 16 15 14 15 17 18 18 17 15 14 13 13 11 11 12 10 11 14 16 17 18 18
2 9 15 18 24 19 17 9 2 10 9 12 7 16 15 19 27 30 30 29 31 28 28 25 24 23 22 21 19 19 19 19 19 19 19 19 20 18 16 16 15 16 16 17 17 17 18 20 23
12 5 18 15 19 15 9 2 9 9 13 16 29 24 15 22 29 28 28 29 29 30 28 27 25 24 22 22 22 21 21 21 21 19 20 22 23 23 21 21 22 21 20 21 22 24 25 25 25
6 12 23 20 21 14 10 7 7 10 15 15 13 16 19 23 27 28 29 30 30 27 26 24 23 26 26 26 28 27 26 25 26 26 25 27 28 28 28 29 28 29 28 26 25 24 27 31 32
5 20 17 16 11 13 15 10 14 10 9 9 5 11 16 33 30 29 27 27 26 25 22 21 21 21 20 20 28 29 26 25 25 25 26 27 28 26 27 27 29 31 33 34 33 33 30 30 35
2 9 14 16 6 18 25 13 7 7 17 10 6 10 33 37 31 30 28 26 24 24 21 21 23 25 25 21 24 24 27 21 18 16 17 16 12 17 18 32 29 29 31 35 38 40 39 35 33
6 14 15 10 12 16 22 8 15 10 16 11 14 26 38 35 31 28 27 25 22 22 22 23 31 36 30 25 23 16 13 10 8 9 9 9 13 16 22 25 33 30 30 29 32 36 39 35 25
9 17 18 13 11 20 18 17 6 4 4 5 20 36 38 33 28 23 23 19 24 24 23 24 31 36 35 29 24 15 11 9 11 11 9 15 15 18 19 19 19 20 24 18 21 20 18 22 26
13 12 9 16 16 14 11 17 17 11 11 3 20 32 34 31 26 25 25 20 18 20 23 23 30 34 44 32 26 18 10 9 8 11 13 16 16 19 19 17 19 20 20 23 21 18 21 23 26
22 20 21 22 21 20 18 18 19 13 10 19 25 25 29 34 30 26 22 14 13 14 13 17 27 43 47 34 26 18 13 9 9 12 16 16 16 17 16 16 17 18 19 21 23 22 22 21 23
18 29 22 15 16 15 11 16 4 10 12 21 24 26 28 30 31 26 28 27 15 4 8 12 25 40 48 48 37 19 13 13 12 12 14 15 15 14 14 17 17 16 17 19 20 22 23 22 22
28 24 20 11 9 12 7 17 13 12 17 23 21 19 21 29 26 33 22 27 16 11 1 10 20 35 43 45 38 19 14 14 14 13 15 14 13 14 16 17 17 19 21 22 22 24 23 23 24
10 14 13 12 3 7 9 8 12 17 19 17 17 17 23 24 28 23 29 22 18 17 9 8 18 27 34 41 42 24 17 14 15 13 12 14 15 16 15 17 19 22 20 22 23 26 27 28 27
12 11 5 10 3 5 11 10 16 14 12 9 11 14 20 26 26 24 25 20 21 18 15 14 18 23 28 34 30 24 22 17 14 13 14 16 17 17 16 17 19 23 22 24 25 27 27 27 27
14 8 4 2 8 8 9 10 18 13 10 9 11 13 17 26 30 25 28 22 20 22 23 21 19 22 26 23 25 29 22 18 16 15 15 17 17 19 19 18 22 20 21 22 22 27 25 25 25
12 11 6 10 9 2 8 11 6 9 9 14 19 16 13 15 16 25 27 30 31 25 18 31 24 26 20 17 25 28 18 16 15 16 19 17 16 17 19 17 20 21 20 20 21 20 21 22 20
9 7 7 7 8 10 11 9 8 13 10 6 12 17 18 15 11 19 27 37 35 26 34 26 27 24 19 18 23 21 15 15 17 15 19 17 18 16 15 19 19 21 18 20 22 20 21 20 20
12 18 7 15 15 6 10 14 12 15 10 8 5 9 22 17 14 13 18 27 31 24 25 22 22 24 23 26 19 21 21 19 18 19 19 18 15 15 17 19 17 20 17 20 22 23 22 25 25
27 8 13 13 19 7 11 6 11 4 1 1 3 5 16 18 14 11 11 18 25 27 25 23 24 24 24 21 18 21 15 19 21 22 23 21 15 16 16 17 20 20 18 20 22 22 24 25 24
9 4 8 18 23 11 17 13 17 3 6 10 5 3 8 14 17 14 14 15 18 22 23 21 24 26 21 21 24 18 18 20 24 24 25 22 14 16 16 17 20 21 20 18 21 22 24 25 23
14 8 7 11 11 22 14 9 16 5 6 6 9 14 14 14 13 15 16 15 14 18 18 19 21 23 20 19 18 16 17 23 24 23 19 17 18 17 15 17 17 21 15 18 18 19 21 25 23
10 15 15 14 17 3 8 11 17 6 3 9 17 19 18 17 11 16 18 14 18 16 16 20 20 22 21 17 16 16 15 23 23 20 16 16 18 18 17 16 17 17 16 16 17 18 19 19 28
13 13 16 26 23 13 11 2 8 11 9 10 14 19 20 18 18 18 18 20 24 26 22 26 22 22 23 19 16 16 15 16 18 16 11 13 16 14 13 13 16 16 15 16 20 18 18 20 24
8 15 12 21 20 18 11 12 13 15 13 12 13 17 21 23 22 19 17 19 19 23 26 22 22 23 25 21 18 19 17 18 16 14 14 11 14 15 17 18 19 17 14 18 21 21 20 20 20
11 8 14 13 16 14 13 8 13 3 7 10 14 18 19 19 20 22 23 26 27 27 28 25 24 27 26 26 26 20 23 23 19 17 19 16 17 19 16 15 17 16 15 18 21 20 21 17 17
5 5 3 9 9 15 12 11 8 5 8 11 15 17 20 25 27 28 29 30 31 30 33 35 31 26 26 30 34 29 23 26 26 27 25 21 22 18 21 16 14 12 16 17 19 18 18 15 13
9 8 8 11 6 2 11 8 10 3 6 13 22 24 25 27 29 33 35 34 38 38 38 38 39 39 35 30 32 39 34 29 31 32 32 27 27 22 22 21 15 15 12 11 12 13 13 13 16
Wind_Direction_500mb
122 109 187 278 207 104 78 84 115 117 109 87 69 58 80 43 8 101 124 111 111 111 109 110 109 98 93 87 82 76 63 49 41 46 46 34 26 21 18 31 36 60 77 94 146 105 213 210 183
142 152 219 260 167 133 79 92 81 79 110 122 87 93 64 69 65 122 109 120 121 111 108 105 105 106 103 98 94 80 54 44 42 40 35 31 26 17 9 13 41 203 183 174 203 218 223 220 203
108 183 275 106 26 92 105 110 106 107 130 157 111 72 61 89 116 119 118 112 107 100 102 109 114 109 98 86 77 67 54 40 31 27 26 27 22 9 351 331 315 297 267 264 268 242 229 230 229
261 184 146 148 112 74 108 99 108 123 108 100 108 91 93 85 116 120 115 103 92 90 88 94 89 78 71 63 54 43 32 27 24 19 18 15 10 8 357 345 328 308 289 275 269 259 246 243 242
318 245 117 119 98 96 86 110 201 119 85 115 132 99 84 98 116 113 102 99 99 94 89 86 76 70 61 53 42 31 21 14 9 2 358 354 349 346 337 329 315 306 297 284 276 277 271 255 246
193 287 145 118 109 115 94 54 153 97 102 99 112 108 91 120 117 108 106 104 103 101 93 83 72 61 48 34 22 10 1 354 347 338 333 330 328 326 322 316 313 304 298 290 279 268 263 263 257
11 114 80 131 122 131 114 70 112 102 119 90 137 109 133 133 120 117 115 109 101 96 92 83 65 38 21 15 6 357 347 341 335 327 323 320 319 314 310 309 302 300 297 292 288 279 271 264 262
80 105 139 121 163 98 119 110 121 110 88 127 90 160 158 149 129 124 116 111 103 95 88 73 61 39 31 3 355 342 332 323 320 318 317 318 332 325 320 313 303 296 290 285 278 273 269 266 259
287 148 111 110 148 122 153 142 129 130 128 107 95 94 157 143 136 132 126 123 113 97 84 68 45 22 12 4 348 0 342 347 343 337 320 338 321 329 336 308 308 299 288 281 279 275 268 264 267
281 83 75 67 82 140 155 140 141 164 145 91 115 122 142 143 143 138 129 116 104 89 78 58 35 26 12 5 4 4 6 11 22 11 9 358 343 330 333 325 321 314 304 293 283 277 272 274 263
36 72 119 99 94 136 132 123 128 194 172 126 155 146 146 147 143 131 122 106 108 86 70 52 36 26 26 12 12 4 6 24 3 24 17 340 347 327 327 328 328 331 328 329 316 305 288 258 252
114 79 90 103 111 127 124 122 92 56 29 179 159 157 152 147 137 133 129 129 100 77 70 50 35 31 25 23 11 14 15 29 21 342 1 342 340 331 334 330 337 337 334 333 327 321 303 289 270
96 97 84 97 94 91 105 77 93 72 77 128 142 140 149 154 154 149 144 118 99 70 66 47 31 27 28 20 13 12 28 16 6 349 335 341 341 337 341 336 342 335 332 330 327 322 313 308 285
109 114 108 97 100 115 109 103 240 83 119 129 134 143 161 161 160 148 140 130 132 178 58 26 19 23 18 15 17 4 9 1 346 339 329 346 340 333 345 340 339 338 337 332 330 318 314 306 296
128 122 127 105 105 121 149 77 79 129 142 139 140 152 166 169 169 161 174 158 181 200 118 10 8 17 9 11 10 353 358 351 339 330 331 341 343 339 346 331 335 330 330 335 330 324 319 311 297
195 184 207 95 188 139 261 73 149 174 169 160 163 165 179 186 179 199 179 193 225 211 221 322 350 359 360 0 359 350 342 347 332 326 324 319 332 329 339 331 330 318 331 327 323 323 318 305 294
195 329 215 153 51 145 249 116 155 176 190 193 193 182 194 196 204 212 207 226 222 219 226 269 318 340 345 349 350 347 340 338 326 319 314 309 325 315 324 319 314 327 332 329 325 319 313 306 296
349 283 151 261 122 170 110 127 157 186 211 231 215 220 222 225 224 222 221 234 223 231 249 268 289 312 325 342 349 344 340 334 325 317 305 314 314 312 313 315 314 325 323 317 311 323 321 313 307
296 296 18 113 142 170 95 143 152 201 230 253 243 217 213 240 243 233 233 238 247 260 263 269 267 288 312 324 343 342 328 322 331 338 321 313 301 308 308 312 309 310 314 307 322 332 334 331 307
253 278 131 133 182 260 179 129 165 167 176 307 297 224 202 224 249 243 237 244 250 284 257 254 250 272 295 312 328 327 316 312 316 321 324 314 305 305 309 305 301 296 306 310 318 323 333 334 319
220 272 159 295 171 194 213 181 164 183 257 280 287 223 219 248 266 280 259 244 245 242 245 253 254 273 294 301 320 323 320 316 312 313 314 304 305 298 299 305 300 304 312 306 314 326 325 322 326
293 352 272 195 204 261 203 329 153 132 77 13 17 227 233 241 254 268 282 265 256 246 256 257 256 268 280 306 307 304 309 305 306 309 303 302 299 294 296 301 304 300 287 287 317 320 321 325 315
14 328 232 217 236 223 166 263 104 123 150 63 60 292 272 258 258 270 292 292 273 256 256 267 262 269 274 297 313 308 299 309 313 309 308 307 305 302 300 301 299 287 289 300 311 317 318 334 313
125 134 182 220 245 245 110 258 107 98 37 66 65 36 11 333 297 285 293 288 294 280 275 269 260 257 256 290 290 288 286 305 309 316 318 315 304 301 299 303 291 288 303 311 311 315 324 336 332
234 224 264 232 204 14 120 235 64 57 91 28 22 16 15 2 348 315 297 294 296 286 288 282 269 251 242 268 281 278 276 308 325 324 325 337 324 314 304 297 295 297 304 320 321 317 327 339 358
236 317 293 301 305 342 143 281 90 43 72 37 31 20 11 2 352 343 339 344 337 332 311 291 272 264 248 259 276 277 274 300 322 311 322 346 354 346 333 313 298 302 318 329 328 331 318 323 343
136 248 7 288 241 263 100 104 151 107 57 47 41 27 21 14 14 10 7 0 352 336 325 303 276 268 258 259 278 285 272 281 290 302 307 311 340 342 322 328 296 300 318 330 333 331 327 311 330
331 25 264 218 283 287 135 208 125 40 18 29 26 17 13 10 8 6 1 359 358 358 341 322 301 286 268 259 269 286 276 273 283 282 287 282 313 321 333 331 310 283 299 315 325 327 322 315 319
263 235 292 303 301 301 308 101 52 30 18 6 8 356 347 344 345 345 343 342 342 338 325 320 312 304 285 273 280 278 281 268 279 273 279 291 293 303 306 308 324 294 295 297 316 333 336 334 353
41 20 328 299 106 336 308 81 106 67 41 352 349 354 355 347 346 340 339 342 344 342 333 321 318 309 301 289 271 268 268 272 274 278 274 286 282 289 310 295 299 305 292 285 316 341 24 14 19
Wind_Speed_850mb
13 7 9 6 8 8 18 13 17 18 16 12 14 16 24 17 12 14 18 16 21 24 25 23 23 21 17 16 17 19 16 18 16 13 11 9 9 7 7 7 5 5 7 5 4 2 2 2 1
8 5 3 7 6 14 14 15 20 17 19 22 17 13 10 12 15 23 18 24 24 26 27 26 21 19 18 16 14 12 11 11 11 13 13 12 10 9 8 7 4 1 3 3 4 8 6 6 6
3 7 12 4 8 16 20 18 20 19 12 10 10 15 13 8 16 14 26 30 29 33 31 26 19 16 14 14 12 10 9 10 13 14 13 12 10 9 8 7 7 5 7 11 10 9 12 12 12
2 7 6 10 30 22 27 18 18 21 17 5 17 21 21 13 11 19 32 33 33 32 29 20 16 16 17 16 15 14 15 17 18 18 17 15 14 13 13 11 11 12 10 11 14 16 17 18 18
2 9 15 18 24 19 17 9 2 10 9 12 7 16 15 19 27 30 30 29 31 28 28 25 24 23 22 21 19 19 19 19 19 19 19 19 20 18 16 16 15 16 16 17 17 17 18 20 23
12 5 18 15 19 15 9 2 9 9 13 16 29 24 15 22 29 28 28 29 29 30 28 27 25 24 22 22 22 21 21 21 21 19 20 22 23 23 21 21 22 21 20 21 22 24 25 25 25
6 12 23 20 21 14 10 7 7 10 15 15 13 16 19 23 27 28 29 30 30 27 26 24 23 26 26 26 28 27 26 25 26 26 25 27 28 28 28 29 28 29 28 26 25 24 27 31 32
5 20 17 16 11 13 15 10 14 10 9 9 5 11 16 33 30 29 27 27 26 25 22 21 21 21 20 20 28 29 26 25 25 25 26 27 28 26 27 27 29 31 33 34 33 33 30 30 35
2 9 14 16 6 18 25 13 7 7 17 10 6 10 33 37 31 30 28 26 24 24 21 21 23 25 25 21 24 24 27 21 18 16 17 16 12 17 18 32 29 29 31 35 38 40 39 35 33
6 14 15 10 12 16 22 8 15 10 16 11 14 26 38 35 31 28 27 25 22 22 22 23 31 36 30 25 23 16 13 10 8 9 9 9 13 16 22 25 33 30 30 29 32 36 39 35 25
9 17 18 13 11 20 18 17 6 4 4 5 20 36 38 33 28 23 23 19 24 24 23 24 31 36 35 29 24 15 11 9 11 11 9 15 15 18 19 19 19 20 24 18 21 20 18 22 26
13 12 9 16 16 14 11 17 17 11 11 3 20 32 34 31 26 25 25 20 18 20 23 23 30 34 44 32 26 18 10 9 8 11 13 16 16 19 19 17 19 20 20 23 21 18 21 23 26
22 20 21 22 21 20 18 18 19 13 10 19 25 25 29 34 30 26 22 14 13 14 13 17 27 43 47 34 26 18 13 9 9 12 16 16 16 17 16 16 17 18 19 21 23 22 22 21 23
18 29 22 15 16 15 11 16 4 10 12 21 24 26 28 30 31 26 28 27 15 4 8 12 25 40 48 48 37 19 13 13 12 12 14 15 15 14 14 17 17 16 17 19 20 22 23 22 22
28 24 20 11 9 12 7 17 13 12 17 23 21 19 21 29 26 33 22 27 16 11 1 10 20 35 43 45 38 19 14 14 14 13 15 14 13 14 16 17 17 19 21 22 22 24 23 23 24
10 14 13 12 3 7 9 8 12 17 19 17 17 17 23 24 28 23 29 22 18 17 9 8 18 27 34 41 42 24 17 14 15 13 12 14 15 16 15 17 19 22 20 22 23 26 27 28 27
12 11 5 10 3 5 11 10 16 14 12 9 11 14 20 26 26 24 25 20 21 18 15 14 18 23 28 34 30 24 22 17 14 13 14 16 17 17 16 17 19 23 22 24 25 27 27 27 27
14 8 4 2 8 8 9 10 18 13 10 9 11 13 17 26 30 25 28 22 20 22 23 21 19 22 26 23 25 29 22 18 16 15 15 17 17 19 19 18 22 20 21 22 22 27 25 25 25
12 11 6 10 9 2 8 11 6 9 9 14 19 16 13 15 16 25 27 30 31 25 18 31 24 26 20 17 25 28 18 16 15 16 19 17 16 17 19 17 20 21 20 20 21 20 21 22 20
9 7 7 7 8 10 11 9 8 13 10 6 12 17 18 15 11 19 27 37 35 26 34 26 27 24 19 18 23 21 15 15 17 15 19 17 18 16 15 19 19 21 18 20 22 20 21 20 20
12 18 7 15 15 6 10 14 12 15 10 8 5 9 22 17 14 13 18 27 31 24 25 22 22 24 23 26 19 21 21 19 18 19 19 18 15 15 17 19 17 20 17 20 22 23 22 25 25
27 8 13 13 19 7 11 6 11 4 1 1 3 5 16 18 14 11 11 18 25 27 25 23 24 24 24 21 18 21 15 19 21 22 23 21 15 16 16 17 20 20 18 20 22 22 24 25 24
9 4 8 18 23 11 17 13 17 3 6 10 5 3 8 14 17 14 14 15 18 22 23 21 24 26 21 21 24 18 18 20 24 24 25 22 14 16 16 17 20 21 20 18 21 22 24 25 23
14 8 7 11 11 22 14 9 16 5 6 6 9 14 14 14 13 15 16 15 14 18 18 19 21 23 20 19 18 16 17 23 24 23 19 17 18 17 15 17 17 21 15 18 18 19 21 25 23
10 15 15 14 17 3 8 11 17 6 3 9 17 19 18 17 11 16 18 14 18 16 16 20 20 22 21 17 16 16 15 23 23 20 16 16 18 18 17 16 17 17 16 16 17 18 19 19 28
13 13 16 26 23 13 11 2 8 11 9 10 14 19 20 18 18 18 18 20 24 26 22 26 22 22 23 19 16 16 15 16 18 16 11 13 16 14 13 13 16 16 15 16 20 18 18 20 24
8 15 12 21 20 18 11 12 13 15 13 12 13 17 21 23 22 19 17 19 19 23 26 22 22 23 25 21 18 19 17 18 16 14 14 11 14 15 17 18 19 17 14 18 21 21 20 20 20
11 8 14 13 16 14 13 8 13 3 7 10 14 18 19 19 20 22 23 26 27 27 28 25 24 27 26 26 26 20 23 23 19 17 19 16 17 19 16 15 17 16 15 18 21 20 21 17 17
5 5 3 9 9 15 12 11 8 5 8 11 15 17 20 25 27 28 29 30 31 30 33 35 31 26 26 30 34 29 23 26 26 27 25 21 22 18 21 16 14 12 16 17 19 18 18 15 13
9 8 8 11 6 2 11 8 10 3 6 13 22 24 25 27 29 33 35 34 38 38 38 38 39 39 35 30 32 39 34 29 31 32 32 27 27 22 22 21 15 15 12 11 12 13 13 13 16
Wind_Direction_850mb
122 109 187 278 207 104 78 84 115 117 109 87 69 58 80 43 8 101 124 111 111 111 109 110 109 98 93 87 82 76 63 49 41 46 46 34 26 21 18 31 36 60 77 94 146 105 213 210 183
142 152 219 260 167 133 79 92 81 79 110 122 87 93 64 69 65 122 109 120 121 111 108 105 105 106 103 98 94 80 54 44 42 40 35 31 26 17 9 13 41 203 183 174 203 218 223 220 203
108 183 275 106 26 92 105 110 106 107 130 157 111 72 61 89 116 119 118 112 107 100 102 109 114 109 98 86 77 67 54 40 31 27 26 27 22 9 351 331 315 297 267 264 268 242 229 230 229
261 184 146 148 112 74 108 99 108 123 108 100 108 91 93 85 116 120 115 103 92 90 88 94 89 78 71 63 54 43 32 27 24 19 18 15 10 8 357 345 328 308 289 275 269 259 246 243 242
318 245 117 119 98 96 86 110 201 119 85 115 132 99 84 98 116 113 102 99 99 94 89 86 76 70 61 53 42 31 21 14 9 2 358 354 349 346 337 329 315 306 297 284 276 277 271 255 246
193 287 145 118 109 115 94 54 153 97 102 99 112 108 91 120 117 108 106 104 103 101 93 83 72 61 48 34 22 10 1 354 347 338 333 330 328 326 322 316 313 304 298 290 279 268 263 263 257
11 114 80 131 122 131 114 70 112 102 119 90 137 109 133 133 120 117 115 109 101 96 92 83 65 38 21 15 6 357 347 341 335 327 323 320 319 314 310 309 302 300 297 292 288 279 271 264 262
80 105 139 121 163 98 119 110 121 110 88 127 90 160 158 149 129 124 116 111 103 95 88 73 61 39 31 3 355 342 332 323 320 318 317 318 332 325 320 313 303 296 290 285 278 273 269 266 259
287 148 111 110 148 122 153 142 129 130 128 107 95 94 157 143 136 132 126 123 113 97 84 68 45 22 12 4 348 0 342 347 343 337 320 338 321 329 336 308 308 299 288 281 279 275 268 264 267
281 83 75 67 82 140 155 140 141 164 145 91 115 122 142 143 143 138 129 116 104 89 78 58 35 26 12 5 4 4 6 11 22 11 9 358 343 330 333 325 321 314 304 293 283 277 272 274 263
36 72 119 99 94 136 132 123 128 194 172 126 155 146 146 147 143 131 122 106 108 86 70 52 36 26 26 12 12 4 6 24 3 24 17 340 347 327 327 328 328 331 328 329 316 305 288 258 252
114 79 90 103 111 127 124 122 92 56 29 179 159 157 152 147 137 133 129 129 100 77 70 50 35 31 25 23 11 14 15 29 21 342 1 342 340 331 334 330 337 337 334 333 327 321 303 289 270
96 97 84 97 94 91 105 77 93 72 77 128 142 140 149 154 154 149 144 118 99 70 66 47 31 27 28 20 13 12 28 16 6 349 335 341 341 337 341 336 342 335 332 330 327 322 313 308 285
109 114 108 97 100 115 109 103 240 83 119 129 134 143 161 161 160 148 140 130 132 178 58 26 19 23 18 15 17 4 9 1 346 339 329 346 340 333 345 340 339 338 337 332 330 318 314 306 296
128 122 127 105 105 121 149 77 79 129 142 139 140 152 166 169 169 161 174 158 181 200 118 10 8 17 9 11 10 353 358 351 339 330 331 341 343 339 346 331 335 330 330 335 330 324 319 311 297
195 184 207 95 188 139 261 73 149 174 169 160 163 165 179 186 179 199 179 193 225 211 221 322 350 359 360 0 359 350 342 347 332 326 324 319 332 329 339 331 330 318 331 327 323 323 318 305 294
195 329 215 153 51 145 249 116 155 176 190 193 193 182 194 196 204 212 207 226 222 219 226 269 318 340 345 349 350 347 340 338 326 319 314 309 325 315 324 319 314 327 332 329 325 319 313 306 296
349 283 151 261 122 170 110 127 157 186 211 231 215 220 222 225 224 222 221 234 223 231 249 268 289 312 325 342 349 344 340 334 325 317 305 314 314 312 313 315 314 325 323 317 311 323 321 313 307
296 296 18 113 142 170 95 143 152 201 230 253 243 217 213 240 243 233 233 238 247 260 263 269 267 288 312 324 343 342 328 322 331 338 321 313 301 308 308 312 309 310 314 307 322 332 334 331 307
253 278 131 133 182 260 179 129 165 167 176 307 297 224 202 224 249 243 237 244 250 284 257 254 250 272 295 312 328 327 316 312 316 321 324 314 305 305 309 305 301 296 306 310 318 323 333 334 319
220 272 159 295 171 194 213 181 164 183 257 280 287 223 219 248 266 280 259 244 245 242 245 253 254 273 294 301 320 323 320 316 312 313 314 304 305 298 299 305 300 304 312 306 314 326 325 322 326
293 352 272 195 204 261 203 329 153 132 77 13 17 227 233 241 254 268 282 265 256 246 256 257 256 268 280 306 307 304 309 305 306 309 303 302 299 294 296 301 304 300 287 287 317 320 321 325 315
14 328 232 217 236 223 166 263 104 123 150 63 60 292 272 258 258 270 292 292 273 256 256 267 262 269 274 297 313 308 299 309 313 309 308 307 305 302 300 301 299 287 289 300 311 317 318 334 313
125 134 182 220 245 245 110 258 107 98 37 66 65 36 11 333 297 285 293 288 294 280 275 269 260 257 256 290 290 288 286 305 309 316 318 315 304 301 299 303 291 288 303 311 311 315 324 336 332
234 224 264 232 204 14 120 235 64 57 91 28 22 16 15 2 348 315 297 294 296 286 288 282 269 251 242 268 281 278 276 308 325 324 325 337 324 314 304 297 295 297 304 320 321 317 327 339 358
236 317 293 301 305 342 143 281 90 43 72 37 31 20 11 2 352 343 339 344 337 332 311 291 272 264 248 259 276 277 274 300 322 311 322 346 354 346 333 313 298 302 318 329 328 331 318 323 343
136 248 7 288 241 263 100 104 151 107 57 47 41 27 21 14 14 10 7 0 352 336 325 303 276 268 258 259 278 285 272 281 290 302 307 311 340 342 322 328 296 300 318 330 333 331 327 311 330
331 25 264 218 283 287 135 208 125 40 18 29 26 17 13 10 8 6 1 359 358 358 341 322 301 286 268 259 269 286 276 273 283 282 287 282 313 321 333 331 310 283 299 315 325 327 322 315 319
263 235 292 303 301 301 308 101 52 30 18 6 8 356 347 344 345 345 343 342 342 338 325 320 312 304 285 273 280 278 281 268 279 273 279 291 293 303 306 308 324 294 295 297 316 333 336 334 353
41 20 328 299 106 336 308 81 106 67 41 352 349 354 355 347 346 340 339 342 344 342 333 321 318 309 301 289 271 268 268 272 274 278 274 286 282 289 310 295 299 305 292 285 316 341 24 14 19